Regional Weather Roundup
Issued by NWS Mt. Holly, NJ

Home | Current Version | Previous Version | Text Only | Print | Product List | Glossary On
Versions: 1 2 3 4 5 6 7 8 9 10 11 12 13 14 15 16 17 18 19 20 21 22 23 24 25 26 27 28 29 30 31 32 33 34 35 36 37 38 39 40 41 42 43 44 45 46 47 48 49 50
000
ASUS41 KPHI 200910
RWRPHI

REGIONAL WEATHER ROUNDUP
NATIONAL WEATHER SERVICE MOUNT HOLLY NJ
500 AM EDT MON OCT 20 2014

NOTE:  "FAIR" INDICATES FEW OR NO CLOUDS BELOW 12,000 FEET WITH NO
SIGNIFICANT WEATHER AND/OR OBSTRUCTIONS TO VISIBILITY.

 * = STATION DOES NOT REPORT PRECIPITATION (E.G. RAIN, SNOW, ETC.)
        OR FOG.

NJZ015>026-201000-
SOUTHERN NEW JERSEY

CITY           SKY/WX    TMP DP  RH WIND       PRES   REMARKS
POMONA         PTCLDY    33  30  88 CALM      30.13R
RIO GRANDE*    CLEAR     37  28  70 CALM      30.13R
MILLVILLE      PTCLDY    34  32  92 CALM      30.12R
WRIGHTSTOWN    PTCLDY    32  30  90 S2        30.09R
MOUNT HOLLY    PTCLDY    32  30  92 CALM      30.11S
TRENTON        PTCLDY    33  29  85 CALM      30.10R

$$
NJZ001>014-201000-
NORTHERN NEW JERSEY

CITY           SKY/WX    TMP DP  RH WIND       PRES   REMARKS
SUSSEX         PTCLDY    33  29  85 CALM      30.08S
ANDOVER*         N/A     32  30  92 CALM      30.08S
MORRISTOWN     PTCLDY    36  32  87 CALM      30.10R
NEWARK         MOCLDY    40  30  67 W6        30.10R
TETERBORO      MOCLDY    40  28  62 SW6       30.09R
CALDWELL       MOCLDY    36  29  75 S3        30.10R
SOMERVILLE     MOCLDY    33  30  88 CALM      30.09R
ALLAIRE*       PTCLDY    36  27  69 CALM      30.10R
TOMS RIVER*    PTCLDY    28  25  86 CALM      30.12R

$$
PAZ043-044-047-054-055-060>062-066>071-201000-
EASTERN PENNSYLVANIA

CITY           SKY/WX    TMP DP  RH WIND       PRES   REMARKS
PHILADELPHIA   PTCLDY    41  32  70 S3        30.12R
NORTH PHILA    CLEAR     36  30  79 CALM      30.12S
BLUE BELL      PTCLDY    34  32  93 CALM      30.09S
DOYLESTOWN     PTCLDY    32  31  96 CALM      30.09S
QUAKERTOWN*    PTCLDY    32  30  93 CALM      30.10S
POTTSTOWN      PTCLDY    33  30  88 CALM      30.11S
LANCASTER      CLEAR     35  32  88 E3        30.09S
COATESVILLE    CLEAR     37  32  81 CALM      30.10R
READING        PTCLDY    38  34  85 CALM      30.09R
ALLENTOWN      PTCLDY    36  31  82 CALM      30.09S
MOUNT POCONO     N/A     32  27  81 W5        30.03R WCI  27
HAZLETON       PTCLDY    32  30  93 CALM      30.07S
WILKES BARRE   PTCLDY    34  29  82 CALM      30.06R

$$
DEZALL-MDZ008-012-015-019-020-201000-
DELAWARE AND EASTERN MARYLAND

CITY           SKY/WX    TMP DP  RH WIND       PRES   REMARKS
WILMINGTON     CLEAR     38  35  89 CALM      30.12R
DOVER          CLEAR     39  35  86 W2        30.09S
GEORGETOWN     CLEAR     36  33  89 CALM      30.13R
EASTON         CLEAR     41  41 100 CALM      30.15R
PATUXENT       PTCLDY    38  36  92 SW5       30.11S WCI  34
OCEAN CITY     CLEAR     34  32  92 CALM      30.12S
WALLOPS ISLAND CLEAR     40  37  89 CALM      30.13R
SALISBURY      CLEAR     37  33  85 CALM      30.12S

$$
PAZ001-021-NYZ056-072-MDZ011-DCZ001-201000-
OTHER NEARBY LOCATIONS

CITY           SKY/WX    TMP DP  RH WIND       PRES   REMARKS
HARRISBURG     PTCLDY    38  35  89 CALM      30.08S
STATE COLLEGE  CLOUDY    40  36  85 SW3       30.04S
WILLIAMSPORT   PTCLDY    35  30  82 N3        30.07S
BINGHAMTON     CLOUDY    35  28  75 S5        30.00S WCI  31
NEW YORK CITY  MOCLDY    43  29  57 VRB5      30.11R
BALTIMORE      PTCLDY    37  34  89 CALM      30.10S
WASHINGTON DC  MOCLDY    47  37  68 CALM      30.12S

$$


USA.gov is the U.S. government's official web portal to all federal, state and local government web resources and services.